CAPE
0 0 0 0 0 0 0 0 0 0 0 0 0 0 0 0 0 0 0 0 0 0 0 0 0 0 0 2 5 6 6 7 10 10 11 14 20 23
0 0 0 0 0 0 0 0 0 0 0 0 0 0 0 0 0 0 0 0 0 0 0 0 0 0 0 3 3 1 3 7 7 9 16 21 29 31
0 0 0 0 0 0 0 0 0 0 0 0 0 0 0 0 0 0 0 0 0 0 0 0 0 0 2 0 0 1 4 3 2 10 19 25 21 24
0 0 0 0 0 0 0 0 0 0 0 0 0 0 0 0 0 0 0 0 0 0 0 0 0 0 0 0 0 1 2 0 4 13 14 15 17 20
0 0 0 0 0 0 0 0 0 0 0 0 0 0 0 0 0 0 0 0 0 0 0 0 0 0 0 0 0 0 0 0 6 9 14 14 12 15
0 0 0 0 0 0 0 0 0 0 0 0 0 0 0 0 0 0 0 0 0 0 0 0 0 0 0 0 0 0 0 1 6 11 14 13 11 13
0 0 0 0 0 0 0 0 0 0 0 0 0 0 0 0 0 0 0 0 0 0 0 0 0 0 0 0 0 0 0 4 9 13 17 20 19 18
0 0 0 0 0 0 0 0 0 0 0 0 0 0 0 0 0 0 0 0 0 0 0 0 0 0 0 0 0 0 3 6 11 9 14 18 19 20
0 0 0 0 0 0 0 0 0 0 0 0 0 0 0 0 0 0 0 0 0 0 0 0 0 0 0 0 0 1 2 3 5 8 10 14 14 16
0 0 0 0 0 0 0 0 0 0 0 0 0 0 0 0 0 0 0 0 0 0 0 0 0 0 0 0 0 0 0 3 5 9 9 10 12 16
0 0 0 0 0 0 0 0 0 0 0 0 0 0 0 0 0 0 0 0 0 0 0 0 0 0 0 0 0 0 0 0 4 9 7 10 16 18
0 0 0 0 0 0 0 0 0 0 0 0 0 0 0 0 0 0 0 0 0 0 0 0 3 5 0 0 0 0 0 0 1 2 2 4 12 0
0 0 0 0 0 0 0 0 0 0 0 0 0 0 0 0 0 0 0 0 0 1 0 1 2 0 2 1 0 0 0 0 0 0 0 0 7 13
0 0 0 0 0 0 0 0 3 0 0 0 0 0 0 0 0 0 0 0 0 0 0 0 0 0 0 0 0 0 0 0 0 0 0 0 1 3
0 0 0 0 0 0 0 0 0 0 0 0 0 0 0 0 0 0 0 0 0 0 0 0 0 0 0 0 0 0 0 0 0 0 0 0 0 0
0 0 0 0 0 0 0 0 0 0 0 0 0 0 0 0 0 0 0 0 0 0 0 0 0 0 0 0 0 1 0 0 0 0 0 0 0 0
0 0 0 0 0 0 0 0 0 0 0 0 0 0 0 0 0 0 0 0 0 0 0 0 0 0 0 0 0 0 0 0 0 0 0 0 0 0
0 0 0 0 0 0 0 0 0 0 0 0 0 0 0 0 0 0 0 0 0 0 0 0 0 0 0 0 0 0 0 0 0 0 0 0 0 0
0 0 0 0 0 0 0 0 0 0 0 0 0 0 0 0 0 0 0 0 0 0 0 0 0 0 0 0 0 0 0 0 0 0 0 0 0 0
0 0 0 0 0 0 0 0 0 0 0 0 0 0 0 2 0 0 0 0 0 0 0 0 0 0 0 0 1 0 0 0 0 0 0 0 0 0
0 0 0 0 0 0 0 0 0 0 0 0 0 0 0 0 0 0 0 4 2 0 0 1 0 5 0 0 0 0 0 0 0 0 0 0 0 0
0 0 0 0 0 0 0 0 0 0 0 0 0 0 0 0 0 0 0 0 0 0 1 0 0 0 0 0 0 0 0 0 0 0 0 0 0 1
0 0 1 0 0 0 0 0 0 0 0 0 2 1 1 0 0 0 0 0 0 0 0 0 0 0 0 0 0 0 0 0 0 0 0 0 0 0
CIN
-0 -0 -0 -0 -0 -0 -0 -0 -0 -0 -0 -0 -0 -0 -0 -0 -0 -0 -0 -0 -0 -0 -0 -0 -0 -0 -0 -0 -0 -0 -0 -0 -0 -0 -0 -0 -0 -0
-0 -0 -0 -0 -0 -0 -0 -0 -0 -0 -0 -0 -0 -0 -0 -0 -0 -0 -0 -0 -0 -0 -0 -0 -0 -0 -0 -0 -0 -0 -0 -0 -0 -0 -0 -0 -0 -0
-0 -0 -0 -0 -0 -0 -0 -0 -0 -0 -0 -0 -0 -0 -0 -0 -0 -0 -0 -0 -0 -0 -0 -0 -0 -0 -0 -0 -0 -0 -0 -0 -0 -0 -0 -0 -0 -0
-0 -0 -0 -0 -0 -0 -0 -0 -0 -0 -0 -0 -0 -0 -0 -0 -0 -0 -0 -0 -0 -0 -0 -0 -0 -0 -0 -0 -0 -0 -0 -0 -0 -0 -0 -0 -0 -0
-0 -0 -0 -0 -0 -0 -0 -0 -0 -0 -0 -0 -0 -0 -0 -0 -0 -0 -0 -0 -0 -0 -0 -0 -0 -0 -0 -0 -0 -0 -0 -0 -0 -0 -0 -0 -0 -0
-0 -0 -0 -0 -0 -0 -0 -0 -0 -0 -0 -0 -0 -0 -0 -0 -0 -0 -0 -0 -0 -0 -0 -0 -0 -0 -0 -0 -0 -0 -0 -0 -0 -0 -0 -0 -0 -0
-0 -0 -0 -0 -0 -0 -0 -0 -0 -0 -0 -0 -0 -0 -0 -0 -0 -0 -0 -0 -0 -0 -0 -0 -0 -0 -0 -0 -0 -0 -0 -0 -0 -0 -0 -0 -0 -0
-0 -0 -0 -0 -0 -0 -0 -0 -0 -0 -0 -0 -0 -0 -0 -0 -0 -0 -0 -0 -0 -0 -0 -0 -0 -0 -0 -0 -0 -0 -0 -0 -0 -0 -0 -0 -0 -0
-0 -0 -0 -0 -0 -0 -0 -0 -0 -0 -0 -0 -0 -0 -0 -0 -0 -0 -0 -0 -0 -0 -0 -0 -0 -0 -0 -0 -0 -0 -0 -0 -0 -0 -0 -0 -0 -0
-0 -0 -0 -0 -0 -0 -0 -0 -0 -0 -0 -0 -0 -0 -0 -0 -0 -0 -0 -0 -0 -0 -0 -0 -0 -0 -0 -0 -0 -0 -0 -0 -0 -0 -0 -0 -0 -0
-0 -0 -0 -0 -0 -0 -0 -0 -0 -0 -0 -0 -0 -0 -0 -0 -0 -0 -0 -0 -0 -0 -0 -0 -0 -0 -0 -0 -0 -0 -0 -0 -0 -0 -0 -0 -0 -0
-0 -0 -0 -0 -0 -0 -0 -0 -0 -0 -0 -0 -0 -0 -0 -0 -0 -0 -0 -0 -0 -0 -0 -0 -1 -1 -0 -0 -0 -0 -0 -0 -0 -0 -0 -0 -0 -4
-0 -0 -0 -0 -0 -0 -0 -0 -0 -0 -0 -0 -0 -0 -0 -0 -0 -0 -0 -0 -0 -0 -0 -1 -3 -0 -1 -0 -0 -0 -0 -0 -0 -0 -0 -0 -0 -0
-0 -0 -0 -0 -0 -0 -0 -0 -0 -0 -0 -0 -0 -0 -0 -0 -0 -0 -0 -0 -0 -0 -0 -0 -0 -0 -0 -0 -0 -0 -0 -0 -0 -0 -0 -0 -0 -0
-0 -0 -0 -0 -0 -0 -0 -0 -0 -0 -0 -0 -0 -0 -0 -0 -0 -0 -0 -0 -0 -0 -0 -0 -0 -0 -0 -0 -0 -0 -0 -0 -0 -0 -0 -0 -0 -0
-0 -0 -0 -0 -0 -0 -0 -0 -0 -0 -0 -0 -0 -0 -0 -0 -0 -0 -0 -0 -0 -0 -0 -0 -0 -0 -0 -0 -0 -0 -0 -0 -0 -0 -0 -0 -0 -0
-0 -0 -0 -0 -0 -0 -0 -0 -0 -0 -0 -0 -0 -0 -0 -0 -0 -0 -0 -0 -0 -0 -0 -0 -0 -0 -0 -0 -0 -0 -0 -0 -0 -0 -0 -0 -0 -0
-0 -0 -0 -0 -0 -0 -0 -0 -0 -0 -0 -0 -0 -0 -0 -0 -0 -0 -0 -0 -0 -0 -0 -0 -0 -0 -0 -0 -0 -0 -0 -0 -0 -0 -0 -0 -0 -0
-0 -0 -0 -0 -0 -0 -0 -0 -0 -0 -0 -0 -0 -0 -0 -8 -0 -0 -0 -0 -0 -0 -0 -0 -0 -0 -0 -0 -0 -0 -0 -0 -0 -0 -0 -0 -0 -0
-0 -0 -0 -0 -0 -0 -0 -0 -0 -0 -0 -0 -0 -0 -0 -0 -0 -0 -0 -0 -0 -0 -0 -0 -0 -0 -0 -0 -1 -0 -0 -0 -0 -0 -0 -0 -0 -0
-0 -0 -0 -0 -0 -0 -0 -0 -0 -0 -0 -0 -0 -0 -0 -0 -0 -0 -0 -0 -0 -0 -0 -2 -0 -0 -0 -0 -0 -0 -0 -0 -0 -0 -0 -0 -0 -0
-0 -0 -0 -0 -0 -0 -0 -0 -0 -0 -0 -0 -0 -0 -0 -0 -0 -0 -0 -0 -0 -0 -0 -0 -0 -0 -0 -0 -0 -0 -0 -0 -0 -0 -0 -0 -0 -0
-0 -0 -2 -0 -0 -0 -0 -0 -0 -0 -0 -0 -3 -5 -4 -0 -0 -0 -0 -0 -0 -0 -0 -0 -0 -0 -0 -0 -0 -0 -0 -0 -0 -0 -0 -0 -0 -0
Wind_Speed
5 5 5 3 4 4 4 4 6 5 3 2 3 1 2 4 5 5 5 9 10 10 9 10 12 11 13 15 14 18 19 18 18 20 19 19 21 21
5 6 5 3 4 4 4 4 3 4 4 2 0 2 2 3 3 4 4 5 9 9 9 12 13 12 13 14 16 17 17 18 19 19 20 20 21 22
7 8 6 5 4 5 3 3 4 4 5 1 2 1 1 2 1 2 1 2 3 8 10 14 12 13 13 16 17 17 16 18 19 19 20 22 23 23
8 8 7 6 7 5 4 5 4 4 5 3 0 1 1 1 0 1 2 2 3 6 12 12 13 12 16 16 16 16 16 19 17 19 21 22 22 23
9 9 8 8 6 4 4 5 3 4 4 3 2 0 0 1 2 2 2 3 3 7 11 11 13 17 16 17 16 17 18 17 19 20 21 20 21 23
8 7 5 7 6 6 6 5 4 4 3 3 2 1 0 1 2 2 3 2 3 4 4 7 15 15 16 16 16 18 16 19 20 20 19 19 22 23
8 7 6 9 11 9 6 3 4 3 2 3 2 0 1 2 1 1 1 3 4 1 3 3 4 4 5 9 12 16 21 20 19 17 19 22 23 24
9 8 7 10 9 11 10 9 7 4 3 3 2 1 1 1 1 2 1 2 3 1 1 5 2 6 4 4 16 21 20 17 16 20 23 22 25 25
9 8 7 7 6 4 8 8 7 7 5 4 3 3 2 3 1 3 2 2 3 4 1 5 2 5 4 6 19 19 16 15 21 23 22 24 25 26
9 8 7 7 6 6 5 6 3 4 5 5 4 1 3 4 4 3 2 3 3 3 2 6 2 4 7 7 17 15 11 21 22 22 24 26 24 25
8 9 9 8 11 11 7 6 4 3 6 9 7 7 8 7 8 3 3 3 3 3 1 3 3 10 8 4 3 10 21 20 22 22 25 23 23 25
7 8 15 8 12 11 6 5 5 2 3 4 4 6 7 7 10 5 2 2 3 3 2 6 7 6 7 2 4 8 5 16 20 24 22 21 22 10
8 6 5 13 11 10 8 4 4 4 5 4 3 3 3 4 3 3 2 1 2 3 6 4 3 4 3 9 3 6 8 6 10 11 17 20 22 21
7 4 5 12 9 8 6 3 4 6 4 4 3 1 1 2 3 4 4 4 4 6 7 4 3 3 6 9 10 4 9 7 8 7 7 13 20 22
6 8 12 11 10 6 7 10 9 4 3 3 1 1 2 3 4 4 4 5 5 6 6 5 4 6 4 7 10 9 13 5 8 6 8 8 9 9
13 7 7 8 8 10 8 6 4 3 2 2 1 2 2 2 2 2 2 2 3 5 6 6 6 4 6 7 8 12 9 6 8 10 9 8 8 8
8 3 3 3 4 4 4 3 3 3 3 1 1 1 1 2 2 2 1 3 4 7 7 7 7 6 7 10 9 9 9 9 9 9 9 9 9 8
4 3 3 4 5 4 3 2 2 4 1 0 1 1 2 2 3 3 2 1 4 8 7 7 6 6 5 5 13 9 7 8 8 9 8 8 10 9
4 4 5 5 4 4 3 2 1 1 1 2 2 1 1 2 6 3 3 3 8 8 8 6 2 6 8 10 9 12 9 10 9 9 7 6 8 11
4 5 5 5 4 3 2 2 0 1 1 2 2 2 3 3 2 3 3 5 7 6 5 6 3 3 6 10 13 13 14 9 8 9 9 8 10 20
5 5 4 4 4 3 2 1 1 1 2 1 2 2 2 2 5 4 5 13 13 6 8 8 7 19 8 6 6 9 10 15 14 10 9 8 8 4
5 5 4 3 3 3 2 1 1 1 1 1 2 3 2 3 5 7 6 7 7 7 9 9 7 6 2 4 10 13 10 10 14 18 17 15 6 7
5 4 3 3 3 2 2 1 2 1 1 2 3 3 4 5 6 6 6 7 7 8 9 7 9 5 5 5 13 10 15 13 9 10 10 15 16 18
Wind_Direction
133 128 115 116 104 107 117 135 138 148 173 199 146 3 113 84 88 73 54 47 32 14 3 6 353 350 350 344 349 348 340 337 343 336 331 335 331 331
124 117 97 84 75 75 98 98 106 126 141 145 151 158 56 98 85 77 66 65 27 7 7 4 343 345 343 341 341 337 339 338 336 329 331 330 329 331
124 128 108 107 100 80 53 69 81 91 96 49 92 203 97 97 15 13 48 89 360 353 354 346 339 337 337 338 333 332 334 335 330 326 328 332 326 320
124 118 119 113 85 87 101 80 78 72 114 130 170 28 69 247 232 13 5 18 4 348 343 343 333 331 335 331 330 330 334 329 322 327 328 319 320 323
123 129 123 114 104 115 91 89 81 77 75 115 143 72 125 27 43 29 20 343 319 339 334 347 342 332 333 329 331 333 327 321 324 321 317 317 321 320
82 87 101 99 114 103 83 78 78 83 81 102 93 97 301 24 78 75 354 284 295 314 340 356 333 327 328 328 330 319 320 323 317 316 314 320 320 318
79 78 79 90 99 95 97 111 96 88 120 90 91 62 350 27 56 301 264 300 293 286 330 323 304 300 299 315 317 313 321 318 315 316 322 319 316 315
107 98 89 86 94 114 132 131 146 148 136 136 135 73 329 281 282 261 263 340 324 262 331 304 262 290 290 288 306 315 315 317 320 328 321 320 317 314
143 135 134 131 126 124 137 134 135 160 163 146 143 196 210 221 226 289 256 222 246 283 299 288 254 289 278 296 304 312 317 323 327 323 323 320 318 316
130 136 135 135 157 142 119 87 83 80 82 83 98 135 238 286 224 230 263 282 281 268 243 284 295 295 302 283 290 313 322 326 323 322 321 321 317 316
142 141 147 159 152 131 112 129 115 74 68 73 61 34 21 11 24 24 3 356 309 294 355 308 308 308 297 267 287 332 322 319 318 316 320 318 319 320
136 144 149 145 137 133 131 144 121 144 81 37 18 16 38 34 50 65 71 2 302 302 246 334 317 344 318 302 329 300 286 304 311 316 315 317 322 313
144 145 143 145 145 141 141 155 167 153 111 95 84 63 35 24 336 314 349 281 244 257 294 317 321 302 255 305 291 299 296 301 299 300 303 308 314 316
135 131 154 148 146 139 126 152 123 114 100 88 70 44 282 273 291 313 291 274 251 245 274 263 241 259 286 293 296 296 301 292 279 289 290 296 305 307
124 148 151 154 134 97 107 102 87 82 95 86 115 254 241 262 293 308 305 285 273 278 292 278 249 273 254 278 288 303 309 304 293 288 302 296 299 302
142 140 150 127 124 112 92 75 79 117 120 124 206 245 289 330 311 281 302 316 332 318 301 275 269 247 275 266 281 295 296 295 299 295 294 295 296 292
122 108 117 101 99 95 86 110 121 94 83 117 273 332 313 299 279 288 323 358 318 305 299 303 298 255 253 264 282 279 286 284 282 288 301 302 300 296
118 126 116 118 122 127 139 128 89 81 114 352 299 251 268 306 309 331 345 272 293 305 299 297 301 313 301 273 260 284 284 285 289 292 292 297 300 305
121 129 126 121 127 124 126 112 120 209 228 248 248 273 295 281 323 290 280 281 314 303 287 289 297 308 308 302 300 291 305 295 293 293 287 264 282 295
122 129 128 132 127 118 110 130 201 297 291 313 349 347 313 294 288 281 284 289 287 280 290 301 275 257 283 298 307 303 292 291 293 287 286 282 274 287
125 122 123 125 122 127 155 156 153 322 61 15 328 322 290 302 310 305 292 307 316 310 301 301 292 295 302 308 294 297 300 299 293 291 296 285 285 279
126 120 122 122 125 134 139 123 68 11 344 328 283 292 277 308 313 303 286 292 300 296 293 293 291 297 320 271 291 297 297 304 306 303 296 285 287 294
130 121 134 137 114 119 105 104 187 237 251 295 273 295 301 295 295 279 287 289 287 290 294 296 306 291 266 253 288 297 299 300 305 310 305 300 292 298